New Orleans, LA

9:20 PM CDT on August 24, 2016 (GMT -0500)
Lakefront

Weather History for KNEW - January, 2014

Change the Weather History Date:

Wednesday, January 29, 2014

  Actual Average Record
Temperature  
Mean Temperature 32 °F 54 °F  
Max Temperature 35 °F 63 °F 82 °F (1957)
Min Temperature 28 °F 45 °F 23 °F (1966)
Degree Days  
Heating Degree Days 33 12  
Month to date heating degree days 506 348  
Since 1 July heating degree days 1045 829  
Cooling Degree Days 0 0  
Month to date cooling degree days 0 12  
Year to date cooling degree days 0 12  
Moisture  
Dew Point 14 °F    
Average Humidity 54    
Maximum Humidity 69    
Minimum Humidity 38    
Precipitation  
Precipitation 0.00 in 0.18 in 1.97 in (1991)
Month to date precipitation 2.72 4.81  
Year to date precipitation 2.72 4.81  
Snow  
Snow 0.00 in - - ()
Month to date snowfall T  
Since 1 July snowfall T  
Snow Depth 0.00 in    
Sea Level Pressure  
Sea Level Pressure 30.37 in    
Wind  
Wind Speed 17 mph (NNE)    
Max Wind Speed 24 mph    
Max Gust Speed 30 mph    
Visibility 10 miles    
Events      
T = Trace of Precipitation, MM = Missing Value Source: NWS Daily Summary

Daily Weather History Graph

Daily Weather History Graph

Search for Another Location

Airport or City:

Trip Planner

Search our weather history database for the weather conditions in past years. The results will help you decide how hot, cold, wet, or windy it might be!

Date:

Astronomy

Jan. 29, 2014 Rise Set
Actual Time 6:52 AM CST 5:34 PM CST
Civil Twilight 6:26 AM CST 5:59 PM CST
Nautical Twilight 5:58 AM CST 6:28 PM CST
Astronomical Twilight 5:29 AM CST 6:57 PM CST
Moon 5:28 AM CST (1/29) 4:33 PM CST (1/29)
Length of Visible Light 11h 33m
Length of Day
10h 42m
Waning Crescent, 2% of the Moon is Illuminated
Jan 29
Waning Crescent
Jan 30
New
Feb 6
First Quarter
Feb 14
Full
Feb 22
Last Quarter

Hourly Weather History & Observations

Time (CST) Temp. Windchill Dew Point Humidity Pressure Visibility Wind Dir Wind Speed Gust Speed Precip Events Conditions
12:53 AM 30.0 °F 16.3 °F 19.9 °F 66% 30.33 in 10.0 mi North 24.2 mph - N/A   Overcast
1:53 AM 30.0 °F 16.9 °F 19.9 °F 66% 30.33 in 10.0 mi North 21.9 mph - N/A   Overcast
2:53 AM 30.0 °F 16.6 °F 18.0 °F 61% 30.32 in 10.0 mi North 23.0 mph - N/A   Mostly Cloudy
3:53 AM 28.9 °F 14.5 °F 17.1 °F 61% 30.32 in 10.0 mi North 25.3 mph 31.1 mph N/A   Scattered Clouds
4:53 AM 28.9 °F 15.4 °F 15.1 °F 56% 30.34 in 10.0 mi NNE 21.9 mph - N/A   Partly Cloudy
5:53 AM 28.9 °F 16.5 °F 15.1 °F 56% 30.37 in 10.0 mi NNE 18.4 mph - N/A   Clear
6:53 AM 30.0 °F 15.4 °F 14.0 °F 51% 30.38 in 10.0 mi NNE 27.6 mph 31.1 mph N/A   Clear
7:53 AM 28.9 °F 14.3 °F 12.0 °F 49% 30.40 in 10.0 mi NNE 26.5 mph - N/A   Clear
8:53 AM 30.0 °F 17.2 °F 12.9 °F 49% 30.44 in 10.0 mi NE 20.7 mph - N/A   Clear
9:53 AM 30.9 °F 19.1 °F 14.0 °F 50% 30.46 in 10.0 mi NE 18.4 mph - N/A   Clear
10:53 AM 32.0 °F 20.1 °F 14.0 °F 48% 30.45 in 10.0 mi NNE 19.6 mph - N/A   Clear
11:53 AM 33.1 °F 21.5 °F 12.9 °F 43% 30.44 in 10.0 mi NNE 19.6 mph - N/A   Clear
12:53 PM 34.0 °F 24.6 °F 12.9 °F 42% 30.40 in 10.0 mi North 13.8 mph - N/A   Clear
1:53 PM 35.1 °F 25.5 °F 14.0 °F 42% 30.38 in 10.0 mi North 15.0 mph - N/A   Clear
2:53 PM 36.0 °F 26.7 °F 12.9 °F 39% 30.35 in 10.0 mi North 15.0 mph 23.0 mph N/A   Clear
3:53 PM 36.0 °F 26.7 °F 12.0 °F 37% 30.34 in 10.0 mi North 15.0 mph - N/A   Clear
4:53 PM 36.0 °F 26.3 °F 12.9 °F 39% 30.35 in 10.0 mi North 16.1 mph - N/A   Clear
5:53 PM 34.0 °F 23.4 °F 12.0 °F 40% 30.35 in 10.0 mi North 17.3 mph - N/A   Clear
6:53 PM 34.0 °F 23.4 °F 12.9 °F 42% 30.38 in 10.0 mi North 17.3 mph - N/A   Clear
7:53 PM 33.1 °F 22.2 °F 12.9 °F 43% 30.38 in 10.0 mi NNE 17.3 mph - N/A   Clear
8:53 PM 33.1 °F 21.9 °F 12.9 °F 43% 30.37 in 10.0 mi NE 18.4 mph - N/A   Clear
9:53 PM 32.0 °F 20.8 °F 12.9 °F 45% 30.37 in 10.0 mi ENE 17.3 mph - N/A   Clear
10:53 PM 32.0 °F 22.1 °F 12.0 °F 44% 30.37 in 10.0 mi ENE 13.8 mph - N/A   Clear
11:53 PM 32.0 °F 21.6 °F 12.0 °F 44% 30.35 in 10.0 mi ENE 15.0 mph - N/A   Clear